Location: Bacea
(45.9500°N, 22.6667°E)
Time: 21:08:30
(UTC+00:00)

Lacrosse 4 Rocket - Pass Details

Date: 16 October 2021
Orbit: 538 x 619 km, 68.0° (Epoch: 29 November)

Event Time Altitude Azimuth Distance (km) Brightness Sun altitude
Rises 16:54:06 0° 342° (NNW) 2,782 5.2 -13.4°
Reaches altitude 10° 16:57:50 10° 16° (NNE) 1,903 3.9 -14.0°
Maximum altitude 16:59:20 12° 37° (NE) 1,808 3.6 -14.3°
Enters shadow 16:59:42 12° 42° (NE) 1,815 3.6 -14.4°
